{"data":{"norad_id":67429,"epoch":"2026-05-25T02:20:16.914336Z","epoch_age_seconds":60428,"freshness":"FRESH","line1":"1 67429U 26005AB  26145.09741799  .00020184  00000+0  74045-3 0  9992","line2":"2 67429  42.9989 166.3290 0000560 302.3601  57.7196 15.27604284 20370","mean_motion":15.27604284,"eccentricity":5.6e-5,"inclination_deg":42.9989,"raan_deg":166.329,"arg_perigee_deg":302.3601,"mean_anomaly_deg":57.7196,"bstar":0.00074045,"rev_number":2037,"period_min":94.265250175221,"perigee_km":482.59215962142,"apogee_km":483.3606043202,"semimajor_km":6861.1133819708,"source":"CELESTRAK","updated_at":"2026-05-25T13:38:21.558095Z"}}